Regional Weather Roundup
Issued by NWS State College, PA

Home | Current Version | Previous Version | Text Only | Print | Product List | Glossary On
Versions: 1 2 3 4 5 6 7 8 9 10 11 12 13 14 15 16 17 18 19 20 21 22 23 24 25 26 27 28 29 30 31 32 33 34 35 36 37 38 39 40 41 42 43 44 45 46 47 48 49 50
917
ASUS41 KCTP 241703
RWRCTP

REGIONAL WEATHER ROUNDUP
NATIONAL WEATHER SERVICE STATE COLLEGE PA
100 PM EDT TUE APR 24 2018

Note: "fair" indicates few or no clouds below 12,000 feet with no
significant weather and/or obstructions to visibility.

* = STATION THAT DOES NOT REPORT PRECIPITATION /E.G. RAIN...SNOW...ETC/
    THUNDER OR FOG.

PAZ002>004-007>009-013>016-020>023-029>032-241800-
WESTERN PENNSYLVANIA

CITY           SKY/WX    TMP DP  RH WIND       PRES   REMARKS
ERIE           CLOUDY    61  41  47 S16G29    30.12F
MEADVILLE      LGT RAIN  51  45  79 E7        30.13F
FRANKLIN*      LGT RAIN  49  45  86 SE13G23   30.14F
NEW CASTLE     LGT RAIN  51  51 100 E7        30.11F
BEAVER COUNTY  RAIN      48  46  93 E12       30.10F
BUTLER*        LGT RAIN  50  48  93 E13G21    30.11F
PITTSBURGH INT LGT RAIN  51  49  92 E9        30.08F
PITTSBURGH     LGT RAIN  52  50  93 E10       30.09F
INDIANA*       MOSUNNY   50  48  93 SE12G23   30.17F FOG
LATROBE        LGT RAIN  52  50  93 SE7       30.11F
WASHINGTON CO* LGT RAIN  52  50  93 E10       30.09F
$$

PAZ004>006-010>012-017>019-024>028-033>037-041-042-045-046-049>053-241800-
CENTRAL PENNSYLVANIA

CITY           SKY/WX    TMP DP  RH WIND       PRES   REMARKS
BRADFORD       LGT RAIN  54  38  54 S8G24     30.18F
DUBOIS         LGT RAIN  48  44  86 SE12G20   30.17F FOG
CLEARFIELD     LGT RAIN  52  44  74 SE5       30.20F
JOHNSTOWN      LGT RAIN  46  43  89 SE13G22   30.15F FOG
ALTOONA        LGT RAIN  53  43  68 SE9       30.20F
STATE COLLEGE  CLOUDY    55  41  58 SE9G16    30.21F
WILLIAMSPORT   CLOUDY    62  37  39 VRB3      30.23F
SELINSGROVE    FAIR      61  44  53 SE17G25   30.24F
FT INDIANTOWN  CLOUDY    63  43  48 SE13      30.25F
CAPITAL CITY   CLOUDY    64  46  52 E14       30.23F
HARRISBURG     FAIR      63  45  51 SE15G23   30.23F
YORK           FAIR      62  46  55 SE16G25   30.23F
$$

PAZ038>040-043-044-047-048-054-055-060>062-067>071-241800-
EASTERN PENNSYLVANIA

CITY           SKY/WX    TMP DP  RH WIND       PRES   REMARKS
SCRANTON       FAIR      65  34  31 S9G20     30.25F
MOUNT POCONO   FAIR      59  37  44 S12G18    30.28F
ALLENTOWN      PTSUNNY   66  40  38 S16G23    30.29F
QUAKERTOWN*    MOSUNNY   63  41  45 S5G20     30.29F
READING        PTSUNNY   66  43  43 S15G24    30.26F
LANCASTER      FAIR      63  46  54 SE20G28   30.25F
COATESVILLE    PTSUNNY   61  43  51 SE13G20   30.28F
POTTSTOWN      PTSUNNY   62  41  46 VRB7G20   30.30F
BLUE BELL      FAIR      61  41  48 SE10G22   30.30F
DOYLESTOWN     PTSUNNY   63  41  44 SE8G20    30.29F
WILLOW GROVE   NOT AVBL
NORTH PHILA    FAIR      65  42  43 S10G20    30.31F
PHILADELPHIA   CLOUDY    63  43  48 SE13      30.30F
$$




USA.gov is the U.S. government's official web portal to all federal, state and local government web resources and services.